Regional Weather Roundup
Issued by NWS

Home | Current Version | Previous Version | Text Only | Print | Product List | Glossary Off
Versions: 1 2 3 4 5 6 7 8 9 10 11 12 13 14 15 16 17 18 19 20 21 22 23 24 25 26 27 28 29 30 31 32 33 34 35 36 37 38 39 40 41 42 43 44 45 46 47 48 49 50

000
ASUS43 KLMK 110702
RWRKY
KENTUCKY REGIONAL WEATHER ROUNDUP
NATIONAL WEATHER SERVICE LOUISVILLE KY
200 AM EST THU FEB 11 2016

NOTE "FAIR" INDICATES FEW OR NO CLOUDS BELOW 12,000 FEET
WITH NO SIGNIFICANT WEATHER AND/OR OBSTRUCTIONS TO VISIBILITY.

KYZ001>023-026-027-061>063-070>075-110800-
WESTERN AND SOUTH CENTRAL KENTUCKY

CITY           SKY/WX    TMP DP  RH WIND       PRES   REMARKS
PADUCAH        CLOUDY    26  19  74 E6        30.14F WCI  19
HENDERSON      CLOUDY    21  18  86 SE3       30.18F
OWENSBORO      CLOUDY    22  18  85 CALM      30.19F
HOPKINSVILLE   CLOUDY    24  21  87 E6        30.15F WCI  17
BOWLING GREEN  CLOUDY    25  19  78 CALM      30.18F
GLASGOW        NOT AVBL
$$

KYZ024-025-028>034-038-045-046-053-110800-
NORTH CENTRAL KENTUCKY

CITY           SKY/WX    TMP DP  RH WIND       PRES   REMARKS
LOUISVILLE/SDF MOCLDY    20  12  71 W7        30.18F WCI  11
LOUISVILLE/LOU CLOUDY    20  12  71 W5        30.18F WCI  13
FORT KNOX      CLOUDY    20  14  79 W3        30.15S
$$

KYZ035>037-039>044-047>052-055>060-089>105-110800-
NORTHEAST KENTUCKY

CITY           SKY/WX    TMP DP  RH WIND       PRES   REMARKS
LEXINGTON      CLOUDY    19  10  68 W3        30.14F
COVINGTON      FLURRIES  14   5  67 W5        30.14S WCI   6
FRANKFORT      CLOUDY    20  10  65 CALM      30.15F
$$

KYZ054-064>069-076>088-106>120-110800-
SOUTHEAST KENTUCKY

CITY           SKY/WX    TMP DP  RH WIND       PRES   REMARKS
JACKSON        CLOUDY    17   8  67 VRB5      30.12R WCI  10
LONDON         MOCLDY    19  10  68 SW3       30.14S
SOMERSET       NOT AVBL
MIDDLESBORO    CLOUDY    21  13  70 CALM      30.15S
MONTICELLO     CLOUDY    23  17  78 W7        30.17F WCI  15
$$




USA.gov is the U.S. government's official web portal to all federal, state and local government web resources and services.